Retour au catalogue

STARLINK-32488

ActifCommunicationsVLEO
NORAD 62125·PAYLOAD·🇺🇸 United States

Lancé Nov 27, 2024 depuis Cape Canaveral Space Force Station

Loading…

Prochains Passages (prochaines 24 heures)

TLE

FraisSource: CelesTrak SupGP

Époque: Sep 15, 2026, 03:38 UTC

1 62125C 24222M   26258.15187500  .00055979  00000+0  20280-2 0  2584
2 62125  42.9998 146.5484 0001404 281.5373 332.9751 15.27543906    12

Suivez STARLINK-32488 en temps réel avec AllMySat

Download on the App Store